sat.trackr.live / text

‹ back to catalog

CO3D 1

NORAD 64903 · 2025-156E

PAYLOAD ACTIVE UNKNOWN

§ Identity

Operator
Country
FR
Launch date
2025-07-26
Launch site
FRGUI
Launch vehicle
Mass (kg)
RCS (m²)

Purposes: earth_obs

External: N2YO · Heavens-Above · Gunter

§ Orbital elements

Epoch: 2026-09-19T13:04:02.017056Z

Period
94.72 min
Inclination
97.4342°
Eccentricity
0.0001284
Mean motion
15.20204918 rev/d
Perigee alt
504.3 km
Apogee alt
506.1 km
Semi-major
6,883.4 km
B*
4.2313e-5
RAAN
339.7798°
Arg perigee
96.7954°
Mean anomaly
263.3428°
Rev number
6,386

§ Raw data

CO3D 11 64903U 25156E   26262.54446779  .00000849  00000+0  42313-4 0  99922 64903  97.4342 339.7798 0001284  96.7954 263.3428 15.20204918 63867

JSON: /api/v1/satellites/64903 · /tle

For live sub-satellite position, see the globe view (requires WebGL).

§ Visibility from observer

Set your observer location to see the next 7 days of passes ≥ 10°. The values pass through the URL so the page stays shareable.

No JS? Fill the form by hand. The geolocation button needs JavaScript.

§ Radio — SatNOGS DB

ModeDescriptionDownlinkUplink
FM S-band telemetry 2.273 GHz

1 transmitter · refreshed weekly from db.satnogs.org